This is the latest recevied weather packets stored in our database for station/object KC8RFE-2. If no packets are shown the sender has not sent any weather packets the latest 1 day(s).
| Time | Temp. | Humidity | Pressure | Rain* | Wind** | Luminosity | Snow |
|---|---|---|---|---|---|---|---|
| 1778024926 | 10° C | 9% | - | 0 mm | 0 m/s | - | - |
| 1778024597 | 10° C | 9% | - | 0 mm | 0 m/s | - | - |
| 1778024327 | 10° C | 9% | - | 0 mm | 0 m/s | - | - |
| 1778023998 | 10° C | 9% | - | 0 mm | 0 m/s | - | - |
| 1778023727 | 10° C | 9% | - | 0 mm | 0 m/s | - | - |
| 1778023399 | 10° C | 9% | - | 0 mm | 0.45 m/s, 43° | - | - |
| 1778023127 | 10° C | 9% | - | 0 mm | 0 m/s | - | - |
| 1778022798 | 10° C | 9% | - | 0 mm | 0 m/s | - | - |
| 1778022527 | 10° C | 9% | - | 0 mm | 0.45 m/s, 41° | - | - |
| 1778022198 | 10° C | 9% | - | 0 mm | 0.45 m/s, 45° | - | - |
| 1778021927 | 10° C | 9% | - | 0 mm | 0.89 m/s, 32° | - | - |
| 1778021598 | 10° C | 9% | - | 0 mm | 0.89 m/s, 41° | - | - |
| 1778021327 | 10° C | 9% | - | 0 mm | 0.89 m/s, 27° | - | - |
| 1778020998 | 10° C | 9% | - | 0 mm | 0.89 m/s, 37° | - | - |
| 1778020727 | 10° C | 9% | - | 0 mm | 0.89 m/s, 34° | - | - |
| 1778020397 | 10° C | 9% | - | 0 mm | 1.34 m/s, 24° | - | - |
| 1778020126 | 10° C | 9% | - | 0 mm | 0.89 m/s, 30° | - | - |
| 1778019798 | 10° C | 8% | - | 0 mm | 1.79 m/s, 28° | - | - |
| 1778019526 | 9.44° C | 8% | - | 0 mm | 1.34 m/s, 44° | - | - |
| 1778019226 | 9.44° C | 8% | - | 0 mm | 0.89 m/s, 8° | - | - |
| 1778018926 | 10° C | 8% | - | 0 mm | 1.34 m/s, 22° | - | - |
| 1778018598 | 10° C | 8% | - | 0 mm | 1.79 m/s, 29° | - | - |
| 1778018326 | 9.44° C | 8% | - | 0 mm | 1.79 m/s, 16° | - | - |
| 1778017997 | 10° C | 8% | - | 0 mm | 1.34 m/s, 338° | - | - |
| 1778017726 | 10° C | 9% | - | 0 mm | 1.79 m/s, 359° | - | - |
* Rain latest hour (hover to see other rain measurements)
** Current wind speed in m/s (hover to see current wind gust speed)